Current weather by "City, St" or "zip code"  
 
Advertise Here

Current Conditions: Clarence E Page Municipal Airport, OK

Fair


93.0 F

Last Updated on Jun 18 2021, 5:55 pm CDT
Humidity: 39%
Wind Speed: S 17.3 mph
Barometer 29.87 in
Dewpoint: 64.4 F
Visibility: 10.00 mi
Precip: --
Heat Index: 95 F
Wind Chill: NA
Current conditions at:

Clarence E Page Municipal Airport, OK (KRCE)

Lat: 35.48808 Lon: 97.82356

Local Radar Image active severe weather and emergency alerts image image weather storm and storm spotter reports image weather observation monitoring service image
Local
Radar
Active
Alerts
Storm Reports Obs
Monitoring

Sign-up For Email & Text Message Weather Alert Notification Services


Advertise Here

Observation History for Clarence E Page Municipal Airport, OK


Time Wind
(mph)
Vis
(mi)
Weather Precip (in) Temperature (F) Relative
Humidity
Wind
Chill
(F)
Heat
Index
(F)
Pressure
Air Dwpt altimeter
(in)
sea level
(mb)
Rmks
5:55 pm CDT S 17.3 10.00 Fair -- 93.0 64.4 39% NA 95 29.87 M
3:55 pm CDT S 18.4 G 27.6 10.00 Fair -- 95.0 62.6 34% NA 96 29.89 M
2:55 pm CDT S 17.3 G 24.2 10.00 Fair -- 95.0 62.6 34% NA 96 29.89 M
1:55 pm CDT S 17.3 G 26.5 10.00 Fair -- 93.0 62.6 36% NA 94 29.91 M
12:55 pm CDT S 11.5 G 23.0 10.00 Fair -- 93.0 62.6 36% NA 94 29.93 M
11:55 am CDT S 18.4 10.00 Fair -- 91.0 62.6 38% NA 92 29.94 M
10:55 am CDT SW 18.4 G 24.2 10.00 Fair -- 90.0 62.6 41% NA 91 29.95 M
9:55 am CDT SW 13.8 G 19.6 10.00 Fair -- 86.0 66.2 52% NA 88 29.96 M
8:55 am CDT SW 12.7 G 20.7 10.00 Fair -- 82.0 66.2 58% NA 84 29.96 M
7:55 am CDT SW 10.4 10.00 Fair -- 77.0 66.2 69% NA NA 29.97 M
6:55 am CDT S 8.1 10.00 Fair -- 73.0 66.2 78% NA NA 29.96 M
5:35 am CDT S 8.1 10.00 Fair -- 70.0 64.4 83% NA NA 29.95 M
4:55 am CDT S 9.2 10.00 Fair -- 70.0 64.4 83% NA NA 29.95 M
3:55 am CDT S 6.9 10.00 Fair -- 72.0 66.2 83% NA NA 29.95 M
2:55 am CDT S 9.2 10.00 Fair -- 73.0 66.2 78% NA NA 29.95 M
1:55 am CDT S 10.4 10.00 Fair -- 75.0 66.2 74% NA NA 29.95 M
12:55 am CDT S 9.2 10.00 Fair -- 75.0 66.2 74% NA NA 29.97 M
11:55 pm CDT S 8.1 10.00 Fair -- 75.0 66.2 74% NA NA 29.98 M
10:55 pm CDT S 9.2 10.00 Fair -- 77.0 68.0 74% NA NA 29.97 M
9:35 pm CDT S 10.4 10.00 Fair -- 81.0 68.0 66% NA 84 29.96 M
8:55 pm CDT SE 10.4 10.00 Fair -- 82.0 64.4 55% NA 83 29.96 M
6:55 pm CDT S 9.2 G 16.1 10.00 Fair -- 91.0 66.2 44% NA 94 29.99 M
7:55 pm CDT S 12.7 10.00 Fair -- 90.0 64.4 43% NA 92 29.94 M
6:55 pm CDT S 15.0 G 20.7 10.00 Fair -- 93.0 60.8 34% NA 93 29.94 M

Regional Weather Observation


Clarence E Page Municipal Airport, OK (KRCE)

Fair
93.0 F

Sundance Airport, OK (KHSD)

Fair
93.0 F

Watonga, Watonga Airport, OK (KJWG)

Fair
95.0 F

Oklahoma City, Wiley Post Airport, OK (KPWA)

Fair
93.0 F

Oklahoma City, Will Rogers World Airport, OK (KOKC)

A Few Clouds
91.0 F

Chickasha, Chickasha Municipal Airport, OK (KCHK)

Fair
94.0 F
Advertise Here

Advertise Here